Juliana Airport, Sint Maarten

2:26 AM AST on September 25, 2017 (GMT -0400)
Princess Juliana International

Weather History for TNCM - December, 2012

Change the Weather History Date:

Thursday, December 27, 2012

  Actual Average Record
Temperature  
Mean Temperature 80 °F -  
Max Temperature 84 °F 81 °F 86 °F (1997)
Min Temperature 76 °F 72 °F 71 °F (2000)
Cooling Degree Days 15    
Growing Degree Days 30 (Base 50)    
Moisture  
Dew Point 71 °F    
Average Humidity 73    
Maximum Humidity 83    
Minimum Humidity 62    
Precipitation  
Precipitation 0.01 in 0.08 in - ()
Sea Level Pressure  
Sea Level Pressure 30.01 in    
Wind  
Wind Speed 10 mph ()    
Max Wind Speed 15 mph    
Max Gust Speed -    
Visibility 7.0 miles    
Events Rain    
Averages and records for this station are not official NWS values.
T = Trace of Precipitation, MM = Missing Value Source: Averaged Metar Reports

Daily Weather History Graph

Daily Weather History Graph

Search for Another Location

Airport or City:

Trip Planner

Search our weather history database for the weather conditions in past years. The results will help you decide how hot, cold, wet, or windy it might be!

Date:

Astronomy

Dec. 27, 2012 Rise Set
Actual Time 6:42 AM AST 5:45 PM AST
Civil Twilight 6:18 AM AST 6:09 PM AST
Nautical Twilight 5:51 AM AST 6:36 PM AST
Astronomical Twilight 5:24 AM AST 7:03 PM AST
Moon 5:20 PM AST (12/27) 5:53 AM AST (12/27)
Length of Visible Light 11h 50m
Length of Day
11h 03m
Waxing Gibbous, 99% of the Moon is Illuminated
Dec 27
Waxing Gibbous
Dec 28
Full
Jan 4
Last Quarter
Jan 11
New
Jan 18
First Quarter

Hourly Weather History & Observations

Time (AST) Temp. Heat Index Dew Point Humidity Pressure Visibility Wind Dir Wind Speed Gust Speed Precip Events Conditions
12:00 AM 78.8 °F - 71.6 °F 78% 30.01 in 6.2 mi East 13.8 mph - N/A   Mostly Cloudy
1:00 AM 77.0 °F - 71.6 °F 83% 30.01 in 6.2 mi ESE 12.7 mph - N/A Rain Light Rain Showers
2:00 AM 78 °F - 71 °F 73% 29.99 in 12 mi East 15.0 mph - - Rain Light Rain Showers
2:00 AM 77.0 °F - 71.6 °F 83% 29.98 in 6.2 mi East 15.0 mph - N/A   Scattered Clouds
3:00 AM 77.0 °F - 71.6 °F 83% 29.95 in 6.2 mi ESE 11.5 mph - N/A   Partly Cloudy
4:00 AM 77.0 °F - 69.8 °F 78% 29.95 in 6.2 mi East 9.2 mph - N/A   Partly Cloudy
5:00 AM 77 °F - 71 °F 75% 29.98 in 19 mi East 9.2 mph - -   Scattered Clouds
5:00 AM 77.0 °F - 69.8 °F 78% 29.98 in 6.2 mi East 9.2 mph - N/A   Partly Cloudy
6:00 AM 78.8 °F - 69.8 °F 74% 29.98 in 6.2 mi ESE 9.2 mph - N/A   Partly Cloudy
7:00 AM 78.8 °F - 71.6 °F 78% 30.01 in 6.2 mi ESE 8.1 mph - N/A   Scattered Clouds
8:00 AM 79 °F - 71 °F 72% 30.04 in 31 mi ESE 12.7 mph - -   Partly Cloudy
8:00 AM 78.8 °F - 71.6 °F 78% 30.04 in 6.2 mi East 10.4 mph - N/A   Scattered Clouds
9:00 AM 80.6 °F 84.6 °F 71.6 °F 74% 30.04 in 6.2 mi ESE 9.2 mph - N/A   Scattered Clouds
10:00 AM 82.4 °F 87.2 °F 71.6 °F 70% 30.04 in 6.2 mi East 8.1 mph - N/A   Mostly Cloudy
11:00 AM 83 °F - 72 °F 62% 30.05 in 11 mi East 12.7 mph - -   Mostly Cloudy
11:00 AM 82.4 °F 87.2 °F 71.6 °F 70% 30.04 in 6.2 mi East 12.7 mph - N/A Rain Light Rain Showers
11:27 AM 82.4 °F 87.2 °F 71.6 °F 70% 30.04 in 6.2 mi ESE 10.4 mph - N/A Rain Light Rain Showers
11:34 AM 78.8 °F - 71.6 °F 78% 30.04 in 2.8 mi ESE 11.5 mph - N/A Rain Rain Showers
12:00 PM 80.6 °F 84.6 °F 71.6 °F 74% 30.04 in 4.3 mi ESE 12.7 mph - N/A Rain Light Rain Showers
12:23 PM 80.6 °F 84.6 °F 71.6 °F 74% 30.01 in - North - - N/A Rain Light Rain Showers
1:00 PM 80.6 °F 85.4 °F 73.4 °F 79% 30.01 in 6.2 mi SE 9.2 mph - N/A Rain Light Rain Showers
2:00 PM 82 °F - 71 °F 62% 29.99 in 12 mi ESE 11.5 mph - -   Mostly Cloudy
2:00 PM 82.4 °F 87.2 °F 71.6 °F 70% 29.98 in 6.2 mi ESE 11.5 mph - N/A   Scattered Clouds
3:00 PM 82.4 °F 86.3 °F 69.8 °F 66% 29.98 in 6.2 mi East 10.4 mph - N/A   Scattered Clouds
4:00 PM 82.4 °F 87.2 °F 71.6 °F 70% 29.98 in 6.2 mi East 12.7 mph - N/A   Scattered Clouds
5:00 PM 81 °F - 71 °F 64% 29.99 in 28 mi East 10.4 mph - -   Partly Cloudy
5:00 PM 80.6 °F 84.6 °F 71.6 °F 74% 29.98 in 6.2 mi East 10.4 mph - N/A   Scattered Clouds
6:00 PM 80.6 °F 83.9 °F 69.8 °F 70% 29.98 in 6.2 mi East 12.7 mph - N/A   Scattered Clouds
7:00 PM 78.8 °F - 69.8 °F 74% 30.01 in 6.2 mi East 10.4 mph - N/A   Partly Cloudy
8:00 PM 79 °F - 70 °F 68% 30.03 in 22 mi East 8.1 mph - -   Scattered Clouds
8:00 PM 78.8 °F - 69.8 °F 74% 30.01 in 6.2 mi East 9.2 mph - N/A   Partly Cloudy
9:00 PM 78.8 °F - 69.8 °F 74% 30.04 in 6.2 mi East 8.1 mph - N/A   Partly Cloudy
10:00 PM 78.8 °F - 69.8 °F 74% 30.04 in 6.2 mi East 8.1 mph - N/A   Partly Cloudy
11:00 PM 78 °F - 70 °F 70% 30.04 in 22 mi East 10.4 mph - -   Scattered Clouds
11:00 PM 78.8 °F - 69.8 °F 74% 30.04 in 6.2 mi East 10.4 mph - N/A   Partly Cloudy